RH
73 72 72 70 69 68 67 63 59 54 51 47 42 36 31 28 26 24 21 21 27 31 34 38 40 39 38 36 36 35 34 33 31 32 31 30 29 27 26 24 26 27 26 26 27
76 75 71 69 65 62 57 54 49 42 41 37 38 33 32 27 22 15 13 16 20 23 24 27 27 28 29 30 32 35 36 36 35 34 34 30 30 29 27 26 27 27 28 27 27
77 75 70 63 56 49 45 43 39 37 35 33 34 31 29 27 19 17 18 19 20 20 23 23 24 21 22 22 22 24 26 34 38 37 35 33 33 32 32 29 29 28 28 29 27
67 60 52 42 37 31 33 34 32 34 35 33 34 35 32 32 23 26 21 21 23 23 24 24 22 23 24 24 25 23 21 22 25 34 36 34 33 35 35 35 35 32 30 29 30
32 26 21 17 16 15 22 24 26 32 35 34 35 35 35 36 26 28 24 24 25 27 27 25 26 26 25 24 24 24 23 23 21 20 23 25 24 29 31 35 35 35 35 33 32
15 14 13 13 14 14 17 21 24 25 31 34 35 38 34 35 26 29 21 24 28 28 29 29 28 28 27 26 25 25 25 24 23 22 21 22 20 22 24 26 27 29 31 31 32
11 12 12 12 12 13 18 20 27 24 30 33 33 34 34 27 25 29 26 25 28 29 32 32 33 32 29 28 26 25 23 22 23 24 24 26 21 19 18 21 23 26 26 30 32
16 18 17 18 14 16 18 19 24 31 28 30 35 35 33 24 25 22 25 32 28 29 32 35 37 34 33 32 29 31 29 27 22 24 24 27 20 21 22 21 21 22 25 28 29
23 20 19 16 16 19 21 20 26 35 34 38 39 37 29 29 25 27 28 29 32 32 32 35 35 34 35 34 32 32 31 31 23 26 29 30 24 27 27 25 23 24 25 29 31
18 18 19 19 20 22 22 27 30 37 37 39 38 38 30 33 35 33 25 28 32 29 29 32 32 31 33 38 36 35 33 27 27 29 43 43 31 30 29 30 27 26 26 28 34
20 18 19 20 24 25 31 37 41 41 37 35 31 29 28 35 31 33 34 33 30 26 23 30 33 32 35 39 40 38 37 35 28 26 40 44 39 33 35 34 30 28 28 28 33
18 16 17 18 22 28 36 36 37 45 39 34 35 27 26 25 28 28 42 37 33 27 29 32 30 32 38 38 42 40 41 40 40 34 37 36 41 30 33 31 28 30 33 32 37
15 16 18 19 22 27 27 32 38 38 45 35 27 28 26 33 28 26 29 35 41 39 39 45 31 35 38 39 42 39 44 42 41 36 38 43 44 38 34 33 32 33 36 44 47
13 14 16 18 25 26 31 33 38 44 56 29 28 30 32 31 34 30 37 37 41 43 44 43 38 40 47 44 47 52 46 56 54 53 58 46 53 47 34 30 34 33 45 49 51
11 15 16 18 24 26 26 33 42 53 55 19 29 35 33 33 25 29 30 39 36 39 55 41 50 47 56 51 56 62 62 66 57 60 64 56 56 44 38 36 41 45 55 55 53
9 12 16 20 26 28 30 39 52 69 57 26 27 29 31 32 32 29 35 36 46 49 54 54 54 60 66 65 65 54 47 55 64 63 70 43 53 48 40 43 41 66 65 59 56
9 12 14 22 24 30 36 47 71 62 29 27 28 33 32 33 36 39 39 40 43 59 60 58 54 54 69 66 61 57 59 66 84 74 60 51 53 43 72 63 70 74 80 65 64
11 13 17 27 30 33 45 61 69 28 31 23 31 32 39 41 40 49 44 44 50 55 60 65 62 58 66 62 61 65 67 85 83 76 64 80 69 69 78 85 86 84 78 74 62
17 22 30 28 38 42 58 70 46 26 23 34 39 46 37 41 46 48 47 44 52 56 57 68 68 57 58 63 61 61 64 68 79 74 72 63 72 90 85 84 82 82 83 77 70
29 36 41 40 45 55 76 68 39 31 29 33 53 58 57 46 57 56 54 51 46 54 61 63 68 66 70 58 55 55 58 70 90 94 73 56 54 84 84 85 85 82 77 72 68
35 48 47 54 56 75 84 63 52 49 44 49 54 59 57 58 69 63 66 53 51 54 56 66 76 77 75 65 66 66 60 57 62 67 87 67 59 76 84 88 86 81 77 70 61
36 59 56 66 77 76 67 69 50 50 55 52 49 56 58 66 71 62 67 65 60 61 65 76 79 85 75 69 63 58 61 64 66 63 66 65 62 70 75 78 70 62 58 56 45
46 61 63 70 85 73 71 67 65 71 54 53 49 52 67 74 71 65 63 62 67 74 80 80 88 81 72 76 62 60 57 59 66 70 72 75 65 80 76 76 74 68 65 56 44
73 80 83 76 82 72 76 77 76 75 59 68 69 74 71 68 69 64 63 71 71 75 76 77 78 78 85 75 65 69 57 50 56 68 60 61 54 53 76 72 61 58 59 50 43
78 89 71 75 75 84 82 75 86 88 64 85 88 80 73 72 79 84 77 77 70 74 75 76 74 74 68 64 63 52 51 56 54 51 58 47 50 39 44 50 53 51 47 47 40
77 75 77 85 82 95 85 88 85 85 86 91 83 80 75 81 79 82 74 76 80 78 79 76 78 71 65 58 53 50 46 45 39 41 37 37 42 36 34 45 46 46 41 47 49
76 67 77 71 72 93 80 85 80 68 74 83 84 85 85 81 80 76 74 76 71 77 78 78 75 69 63 52 45 45 37 37 35 31 30 38 41 49 50 52 52 56 63 65 64